Other Public Products
Issued by NWS Grand Forks, ND

Home | Current Version | Previous Version | Graphics & Text | Print | Product List | Glossary On
Versions: 1 2 3 4 5 6 7 8 9 10 11 12 13 14 15 16 17 18 19 20 21 22 23 24 25 26 27 28 29 30 31 32 33 34 35 36 37 38 39 40 41 42 43 44 45 46 47 48 49 50
157
FPUS83 KFGF 280731
OPUFGF
PRAIRIE TO PINES WEATHER ROUNDUP
NATIONAL WEATHER SERVICE EASTERN NORTH DAKOTA/GRAND FORKS ND
200 AM CDT SUN MAY 28 2017

 **SATELLITE DATA USED TO AUGMENT SKY COVER AT AUTOMATED STATIONS**
 *****  WEATHER ACROSS EASTERN NORTH DAKOTA  *****

CITY           SKY/WX    TMP DP  RH WIND       PRES   REMARKS
GRAND FORKS    CLOUDY    53  50  89 CALM      29.73S
GRAND FORKS AF CLOUDY    51  49  94 W6        29.74R
GRAND CITY NWS NOT AVBL
BUXTON           N/A     52  50  93 NW6         N/A
DEVILS LAKE    FAIR      46  44  93 W8        29.79F
FARGO          FAIR      52  47  83 W9        29.76F
WAHPETON ARPT  FAIR      48  45  87 W9        29.79S
$$

 *****  WEATHER ACROSS CENTRAL AND WESTERN NORTH DAKOTA  *****

CITY           SKY/WX    TMP DP  RH WIND       PRES   REMARKS
JAMESTOWN      FAIR      49  44  83 W9        29.81S
BISMARCK       FAIR      48  42  80 CALM      29.87R
MINOT          CLOUDY    52  44  74 SW9       29.84S
MINOT AFB      CLOUDY    52  48  87 W9        29.84R
GARRISON         N/A     42  38  85 N8        29.86R
WILLISTON      FAIR      50  36  58 NE3       29.94R
DICKINSON      FAIR      45  39  79 NW8       29.92S
HETTINGER      FAIR      47  40  76 NW9       29.96S
$$

 *****  OTHER OBSERVATIONS NORTHEAST NORTH DAKOTA  *****

CITY           SKY/WX    TMP DP  RH WIND       PRES   REMARKS
WALHALLA       NOT AVBL
LANGDON        PTSUNNY   46  46 100 W8        29.77S
CAVALIER       FAIR      50  46  87 W8        29.72S
GRAFTON        FAIR      52  48  87 W13       29.75R
CANDO          NOT AVBL
FORT TOTTEN      N/A     45  45 100 CALM      29.95
ROLLA          CLOUDY    52  46  82 NW14      29.80S
RUGBY          NOT AVBL
 ***** THE ABOVE OBSERVATIONS ARE NON NWS ARE NOT QUALITY
        CONTROLLED AND MAY MIS-REPORT RAIN FOR SNOW...
$$

 *****  OTHER OBSERVATIONS SOUTHEAST NORTH DAKOTA *****

CITY           SKY/WX    TMP DP  RH WIND       PRES   REMARKS
COOPERSTOWN    FAIR      46  45  93 W12       29.80R
VALLEY CITY    FAIR      45  46 100 W7        29.82S
OAKES          NOT AVBL
GWINNER        SUNNY     52  46  82 MISG      29.81S
SHEYENNE NWR     N/A     49  47  92 NW6       29.95S
BUFFALO          N/A     52  46  80 N10         N/A
WYNDMERE         N/A     52  46  82 W9          N/A
 ***** THE ABOVE OBSERVATIONS ARE NON NWS ARE NOT QUALITY
       CONTROLLED AND MAY MIS-REPORT RAIN FOR SNOW...
$$

  *****  WEATHER ACROSS NORTHERN MINNESOTA  *****

CITY           SKY/WX    TMP DP  RH WIND       PRES   REMARKS
FLAG ISLAND    CLOUDY    57  46  67 NW14      29.64S
WARROAD        MOCLDY    54  46  76 W5        29.67S
ROSEAU         MOCLDY    55  46  71 W7        29.68R
HALLOCK        FAIR      52  46  82 NW7       29.71R
THF RVR FALLS  RAIN      51  49  92 N12       29.72R
HALSTAD          N/A     50  46  88 NW8         N/A
FOSSTON        MOCLDY    46  45  93 W5        29.73S
BAUDETTE       CLOUDY    55  45  68 W5        29.66F
WASKISH        CLOUDY    57  48  72 SW14G20   29.69R
CROOKSTON      RAIN      50  50 100 NW6       29.74S
$$
  *****  WEATHER ACROSS CENTRAL AND WEST MINNESOTA  *****

CITY           SKY/WX    TMP DP  RH WIND       PRES   REMARKS
BEMIDJI        CLOUDY    51  48  90 S5        29.70S
PARK RAPIDS    RAIN      53  48  83 NW6       29.71F
WADENA         FAIR      52  48  87 W7        29.72F
DETROIT LAKES  FAIR      52  46  82 NW8       29.75F
MOORHEAD       MOCLDY    54  46  76 NW10      29.77S
FERGUS FALLS   FAIR      48  48 100 W8        29.76S
ELBOW LAKE     FAIR      50  48  93 NW6       29.78S
MORRIS MN      FAIR      52  50  93 NW8       29.77R
STAPLES        CLOUDY    55  46  71 SW3       29.72F
WHEATON        FAIR      54  46  76 W14G21    29.81S
$$
  *****  WEATHER ELSEWHERE ACROSS MINNESOTA  *****

CITY           SKY/WX    TMP DP  RH WIND       PRES   REMARKS
DULUTH         FAIR      57  44  62 SW8       29.73F
INTRNTL FALLS  FAIR      50  44  80 CALM      29.67F
ELY            FAIR      48  43  81 CALM      29.71F
CLOQUET        FAIR      52  43  71 CALM      29.73F
BRAINERD       FAIR      56  45  66 SW9       29.72F
HIBBING        FAIR      45  43  93 CALM      29.70F
ALEXANDRIA     FAIR      53  47  79 W6        29.76F
SAINT CLOUD    MOCLDY    57  48  72 W10       29.76S
MINNEAPOLIS    FAIR      63  47  55 SW7       29.79S
$$

  *****  WEATHER ACROSS SOUTH DAKOTA  *****

CITY           SKY/WX    TMP DP  RH WIND       PRES   REMARKS
SIOUX FALLS    FAIR      56  52  86 SW5       29.86F
BROOKINGS      FAIR      56  50  80 W12       29.84F
WATERTOWN      FAIR      50  45  83 W9        29.82R
HURON          FAIR      49  44  83 W8        29.86S
SISSETON         N/A     53  48  83 NW13      29.80R
ABERDEEN       FAIR      52  44  74 NW8       29.85R
MITCHELL       FAIR      56  49  77 W8        29.88F
PIERRE         FAIR      56  44  64 W9        29.90F
MOBRIDGE       FAIR      45  41  86 CALM      29.86S
RAPID CITY     FAIR      53  39  59 W9        30.04S
$$

  *****  SOME WEATHER IN NEARBY STATES *****

CITY           SKY/WX    TMP DP  RH WIND       PRES   REMARKS
GLASGOW MT     MOCLDY    59  40  49 NW6       30.03R
GREAT FALLS MT FAIR      53  41  63 SW8       30.17R
CHEYENNE WY    FAIR      39  33  79 W9        30.25S
SCOTTSBLUFF NE FAIR      47  40  76 CALM      30.15S
OMAHA NE       FAIR      58  52  80 NE3       29.92S
DES MOINES IA  CLOUDY    57  54  89 W5        29.88R
DAVENPORT IA   FAIR      62  60  93 N5        29.79F
CHICAGO IL     CLOUDY    61  54  77 SE3       29.80F
EAU CLAIRE WI  MOCLDY    56  51  84 SW3       29.79S
LA CROSSE WI   MOCLDY    59  57  93 S3        29.81F
$$

  *****  SOME NATIONAL WEATHER *****

CITY           SKY/WX    TMP DP  RH WIND       PRES   REMARKS
LA GUARDIA NY  MOCLDY    61  56  83 E5        29.90S
RALEIGH NC     MOCLDY    68  67  96 NW3       29.84R
ATLANTA GA     MOCLDY    71  62  73 CALM      29.96F
NEW ORLEANS LA MOCLDY    78  75  90 S6        29.93F
OKLAHOMA CITY  CLOUDY    72  62  71 N18G26    29.86F THUNDER
ALBUQUERQUE NM FAIR      67  22  18 N8        30.14R
SALT LAKE CITY FAIR      58  42  55 S5        30.22S
LOS ANGELES CA FAIR      60  57  89 SW7       30.03S
BOISE ID       FAIR      58  41  53 SE7       30.16R
SEATTLE WA     FAIR      67  48  50 CALM      30.06S
$$

*** WEATHER ACROSS MANITOBA...SASKATCHEWAN AND ONTARIO ***
                ***ONTARIO***

CITY           SKY/WX    TMP DP  RH WIND       PRES   REMARKS
GERALDTON      PTCLDY    48  45  87 SW3       29.72S
THUNDER BAY    MOCLDY    48  45  87 NE5       29.71F
SIOUX LOOKOUT  MOCLDY    46  45  93 S5        29.67S
TORONTO        CLEAR     55  52  88 N5        29.88F
BIG TROUT LK     N/A     46  45  93 VRB2      29.62F
PICKLE LAKE    NOT AVBL
DRYDEN         CLOUDY    54  46  76 NE5       29.65F
KENORA         CLOUDY    55  45  67 N7        29.64F
$$
                *** MANITOBA***

CITY           SKY/WX    TMP DP  RH WIND       PRES   REMARKS
BRANDON        MOCLDY    50  46  87 W9        29.77F
DAUPHIN        LGT RAIN  52  48  87 NW7       29.78S
ISLAND LAKE    MOCLDY    52  50  93 W3        29.61
PILOT MOUND      N/A     50  45  81 NW6         N/A
THE PAS        CLOUDY    45  43  93 NW10      29.76S
THOMPSON       CLOUDY    43  41  93 N8        29.71S
WINNIPEG       PTCLDY    46  45  93 NW8       29.71F
LYNN LAKE      LGT RAIN  39  39 100 N9        29.83S
CHURCHILL      CLOUDY    34  32  93 NE12      29.79S
GILLAM         DRZL/FOG  39  39 100 N8        29.68S VSB 1/4
$$
                ***SASKATCHEWAN***

CITY           SKY/WX    TMP DP  RH WIND       PRES   REMARKS
ESTEVAN        PTCLDY    46  43  87 W10       29.91R
KINDERSLEY     PTCLDY    54  41  62 NW10      30.02R
LLOYDMINSTER   CLEAR     54  39  58 N8        30.08R
PRINCE ALBERT  MOCLDY    50  45  81 NW8       29.92F
REGINA         MOCLDY    48  36  61 NW9       29.94R
YORKTON          N/A     52  45  76 NW6       29.85F



USA.gov is the U.S. government's official web portal to all federal, state and local government web resources and services.